SCP
0 0 0 0 0 0 0 0 0 0 0 0 0 0 0 0 0 0 0 0 0 0 0 0 0 0 0 0 0 0 0 0 0 0 0 0 0 0 0 0 0 0 0
0 0 0 0 0 0 0 0 0 0 0 0 0 0 0 0 0 0 0 0 0 0 0 0 0 0 0 0 0 0 0 0 0 0 0 0 0 0 0 0 0 0 0
0 0 0 0 0 0 0 0 0 0 0 0 0 0 0 0 0 0 0 0 0 0 0 0 0 0 0 0 0 0 0 0 0 0 0 0 0 0 0 0 0 0 0
0 0 0 0 0 0 0 0 0 0 0 0 0 0 0 0 0 0 0 0 0 0 0 0 0 0 0 0 0 0 0 0 0 0 0 0 0 0 0 0 0 0 0
0 0 0 0 0 0 0 0 0 0 0 0 0 0 0 0 0 0 0 0 0 0 0 0 0 0 0 0 0 0 0 0 0 0 0 0 0 0 0 0 0 0 0
0 0 0 0 0 0 0 0 0 0 0 0 0 0 0 0 0 0 0 0 0 0 0 0 0 0 0 0 0 0 0 0 0 0 0 0 0 0 0 0 0 0 0
0 0 0 0 0 0 0 0 0 0 0 0 0 0 0 0 0 0 0 0 0 0 0 0 0 0 0 0 0 0 0 0 0 0 0 0 0 0 0 0 0 0 0
0 0 0 0 0 0 0 0 0 0 0 0 0 0 0 0 0 0 0 0 0 0 0 0 0 0 0 0 0 0 0 0 0 0 0 0 0 0 0 0 0 0 0
0 0 0 0 0 0 0 0 0 0 0 0 0 0 0 0 0 0 0 0 0 0 0 0 0 0 0 0 0 0 0 0 0 0 0 0 0 0 0 0 0 0 0
0 0 0 0 0 0 0 0 0 0 0 0 0 0 0 0 0 0 0 0 0 0 0 0 0 0 0 0 0 0 0 0 0 0 0 0 0 0 0 0 0 0 0
0 0 0 0 0 0 0 0 0 0 0 0 0 0 0 0 0 0 0 0 0 0 0 0 0 0 0 0 0 0 0 0 0 0 0 0 0 0 0 0 0 0 0
0 0 0 0 0 0 0 0 0 0 0 0 0 0 0 0 0 0 0 0 0 0 0 0 0 0 0 0 0 0 0 0 0 0 0 0 0 0 0 0 0 0 0
0 0 0 0 0 0 0 0 0 0 0 0 0 0 0 0 0 0 0 0 0 0 0 0 0 0 0 0 0 0 0 0 0 0 0 0 0 0 0 0 0 0 0
0 0 0 0 0 0 0 0 0 0 0 0 0 0 0 0 0 0 0 0 0 0 0 0 0 0 0 0 0 0 0 0 0 0 0 0 0 0 0 0 0 0 0
0 0 0 0 0 0 0 0 0 0 0 0 0 0 0 0 0 0 0 0 0 0 0 0 0 0 0 0 0 0 0 0 0 0 0 0 0 0 0 0 0 0 0
0 0 0 0 0 0 0 0 0 0 0 0 0 0 0 0 0 0 0 0 0 0 0 0 0 0 0 0 0 -0 0 0 0 0 0 0 0 0 0 0 0 0 0
0 0 0 0 0 0 0 0 0 0 0 0 0 0 0 0 0 0 0 0 0 0 0 0 0 0 0 0 0 -0 -0 0 0 0 0 0 0 0 0 0 0 0 0
0 0 0 0 0 0 0 0 0 0 0 0 0 0 0 0 0 0 0 0 0 0 0 0 0 0 0 0 -0 -0 -0 0 0 0 0 0 0 0 0 0 0 0 0
0 0 0 0 0 0 0 0 0 0 0 0 0 0 0 0 0 0 0 0 0 0 0 0 0 0 0 0 0 -0 -0 -0 0 0 0 0 0 0 0 0 0 0 0
0 0 0 0 0 0 0 0 0 0 0 0 0 0 0 0 0 0 0 0 0 0 0 0 0 0 0 0 0 0 -0 -0 0 0 0 0 0 0 0 0 0 0 0
0 0 0 0 0 0 0 0 0 0 0 0 0 0 0 0 0 0 0 0 0 0 0 0 0 0 0 0 0 0 0 0 0 0 0 0 0 0 0 0 0 0 0
0 0 0 0 0 0 0 0 0 0 0 0 0 0 0 0 0 0 0 0 0 0 0 0 0 0 0 0 0 0 0 0 0 0 0 0 0 0 0 0 0 0 0
0 0 0 0 0 0 0 0 0 0 0 0 0 0 0 0 0 0 0 0 0 0 0 0 0 0 0 0 0 0 0 0 0 0 0 0 0 0 0 0 0 0 0
0 0 0 0 0 0 0 0 0 0 0 0 0 0 0 0 0 0 0 0 0 0 0 0 0 0 0 0 0 0 0 0 0 0 0 0 0 0 0 0 0 0 0
0 0 0 0 0 0 0 0 0 0 0 0 0 0 0 0 0 0 0 0 0 0 0 0 0 0 0 0 0 0 0 0 0 0 0 0 0 0 0 0 0 0 0
0 0 0 0 0 0 0 0 0 0 0 0 0 0 0 0 0 0 0 0 0 0 0 0 0 0 0 0 0 0 0 0 0 0 0 0 0 0 0 0 0 0 0
Wind_Speed
3 3 2 2 2 1 1 2 2 3 3 3 3 3 3 2 2 2 1 5 6 7 9 10 10 11 11 12 12 12 12 12 13 13 13 14 14 14 14 14 15 15 15
3 3 3 2 2 2 2 2 2 2 2 2 3 3 2 2 2 1 1 2 5 6 8 10 10 11 11 12 12 13 13 14 14 14 14 15 15 15 15 15 15 15 16
4 3 3 2 2 2 2 2 2 2 2 2 3 3 2 2 2 2 2 1 2 4 7 9 11 11 12 12 12 13 14 14 14 15 15 15 15 16 16 16 16 16 16
4 3 3 2 2 2 2 2 2 2 2 2 2 2 2 2 2 1 1 1 1 2 4 8 10 11 12 13 13 13 14 15 15 15 16 16 16 16 17 17 17 17 17
4 3 3 2 2 2 2 2 2 2 2 2 2 2 2 2 1 1 1 1 1 1 2 5 9 10 12 13 14 14 15 15 16 16 16 17 17 17 17 18 18 18 17
4 3 2 2 2 2 2 2 2 2 2 2 3 2 2 2 1 0 1 2 1 2 2 3 3 6 11 13 14 15 16 16 17 17 17 18 18 18 18 18 18 18 18
3 3 2 2 2 2 1 2 2 2 2 2 2 2 3 3 1 1 1 1 2 3 3 3 3 3 4 10 12 14 16 17 18 18 19 19 19 19 19 19 18 18 18
3 3 3 2 2 2 2 2 2 1 1 2 1 2 3 4 3 2 2 2 3 3 3 4 4 4 4 3 7 13 15 17 19 19 19 19 20 20 20 20 19 19 19
3 3 3 2 2 2 1 1 1 1 1 2 2 1 1 2 4 3 2 2 3 3 4 4 4 4 5 3 4 8 14 17 19 20 20 20 20 21 21 20 20 20 20
3 3 3 2 2 2 2 1 1 1 1 1 2 1 0 1 1 4 3 2 4 5 4 5 5 5 5 4 5 11 15 17 19 19 20 20 21 21 21 20 20 21 21
3 3 3 2 2 1 1 1 1 1 1 0 1 1 2 2 1 2 6 6 5 4 4 5 4 4 5 4 4 9 16 17 19 19 20 20 21 21 21 21 21 21 22
2 3 2 2 2 1 1 1 1 0 0 0 1 1 1 1 2 2 4 6 6 5 5 4 4 4 4 4 7 14 16 17 18 19 19 20 20 20 21 21 21 21 22
2 3 2 1 1 1 1 1 1 0 0 0 1 1 1 1 2 2 3 5 6 6 5 4 3 3 5 4 6 15 15 17 18 18 19 19 19 20 20 21 21 21 21
3 3 2 2 2 1 1 1 0 0 0 0 1 1 1 2 2 2 2 4 6 6 5 5 3 3 5 5 9 14 10 17 18 18 18 18 19 19 19 20 21 21 21
3 3 3 2 2 2 1 1 1 0 0 1 1 2 2 2 1 2 2 2 3 7 7 5 4 5 6 5 10 8 8 15 18 18 18 18 18 18 19 19 20 20 20
3 3 3 2 2 2 1 1 1 1 0 1 1 2 2 2 2 2 2 3 3 5 7 6 6 7 7 8 13 9 9 17 17 18 18 18 18 18 18 19 19 19 20
4 3 3 3 2 2 2 1 1 1 1 1 2 2 3 3 2 2 2 3 3 4 8 8 6 7 8 9 9 8 8 7 8 16 17 17 17 17 18 18 18 19 19
3 3 3 2 2 2 2 2 1 1 1 2 2 2 3 3 4 3 3 4 4 4 6 10 8 7 8 8 8 9 9 8 7 14 16 17 17 17 17 18 18 18 18
3 3 3 2 2 2 2 2 2 1 2 2 2 3 3 3 4 4 4 4 4 5 5 7 9 7 7 7 8 8 9 7 8 10 14 14 16 17 17 18 17 18 17
3 2 2 2 2 2 2 2 1 1 2 2 2 3 3 3 4 4 4 4 5 5 6 6 8 7 7 6 6 7 9 7 8 8 10 11 14 15 16 17 17 16 16
2 2 2 2 1 1 2 1 1 2 2 2 3 3 4 5 6 5 5 5 5 5 5 6 7 7 7 7 7 6 9 8 8 5 6 7 7 6 7 11 13 15 16
2 2 2 2 2 1 1 2 2 1 2 2 3 3 4 4 5 8 10 10 9 7 6 6 6 7 9 8 7 7 8 8 7 4 6 7 5 6 6 5 11 15 16
2 1 1 1 1 1 1 2 3 2 2 2 3 3 4 4 5 4 7 9 9 11 10 7 7 8 8 8 8 9 8 8 8 6 6 7 5 6 6 7 14 15 15
2 1 1 1 1 1 2 2 3 1 2 2 3 3 3 4 5 6 5 6 6 6 8 6 6 7 7 7 7 7 8 8 7 5 4 6 6 6 7 5 11 14 15
2 1 1 1 0 1 2 3 3 1 1 2 3 3 3 4 8 9 6 6 7 6 8 10 11 11 13 13 10 6 6 6 7 5 3 4 5 6 5 5 7 12 13
2 1 1 1 0 0 2 3 4 1 2 2 3 3 4 6 9 9 5 5 7 7 7 8 8 9 7 8 10 5 4 5 6 6 3 4 4 5 6 4 4 5 7
Wind_Direction
93 87 79 72 67 58 44 35 39 33 28 24 27 27 21 29 42 49 40 30 18 9 2 359 357 355 353 350 348 347 344 340 337 334 333 330 328 326 323 320 317 314 312
94 89 77 65 56 43 35 43 44 34 19 19 20 16 8 14 25 35 55 29 14 5 359 354 352 350 348 347 345 343 341 339 336 333 330 327 326 323 320 318 316 313 311
93 90 84 69 57 45 38 42 40 37 26 17 10 5 360 0 0 18 24 23 5 1 355 350 347 345 344 343 341 339 338 336 334 332 330 326 323 319 316 314 312 311 310
96 87 82 66 53 48 42 41 44 34 18 10 353 340 339 340 338 2 18 14 3 350 344 345 341 339 339 337 336 335 335 333 331 329 328 325 322 318 315 312 311 309 308
95 93 91 79 58 52 41 27 34 31 14 360 336 324 318 313 306 349 354 348 346 343 332 337 337 333 332 332 332 333 332 331 329 328 326 324 322 318 315 312 310 308 307
93 88 89 84 72 63 43 38 39 25 15 336 325 325 303 291 287 353 325 324 323 329 331 325 322 323 328 328 328 329 329 328 327 326 325 323 320 318 315 312 309 307 306
95 93 88 81 74 73 62 59 53 30 5 348 354 327 307 294 284 337 315 317 317 318 320 316 310 308 314 321 322 324 325 326 326 326 324 322 319 317 315 313 311 308 305
103 102 99 94 81 76 55 48 54 42 2 7 19 347 334 328 323 304 294 298 304 314 312 316 310 309 306 303 313 323 323 323 323 323 323 322 319 317 315 315 312 310 307
110 106 106 100 88 90 83 53 57 65 5 336 23 71 35 298 312 298 291 300 322 317 309 307 306 309 309 307 305 321 326 324 323 321 322 322 320 318 318 317 315 312 310
123 114 109 104 96 85 82 59 51 38 62 330 339 16 91 256 318 311 305 310 317 312 310 315 313 305 308 306 310 324 325 324 322 322 322 322 322 321 320 320 317 314 312
131 123 113 105 102 95 89 71 54 31 45 360 331 327 326 329 289 283 299 310 313 301 305 306 304 307 311 312 309 320 324 323 322 322 322 322 321 322 321 320 319 318 315
137 132 125 117 115 107 104 102 101 57 16 347 327 334 325 314 306 299 293 303 307 304 303 297 301 307 313 318 320 325 323 322 322 323 323 323 323 322 321 321 321 320 318
151 156 135 132 125 123 125 112 103 135 272 302 295 295 299 285 291 295 295 301 303 301 300 297 299 315 326 326 318 322 320 321 322 323 323 323 323 322 321 321 322 321 320
160 153 149 154 148 144 136 128 129 210 41 344 313 308 305 299 297 292 291 304 308 303 300 296 304 316 326 317 312 320 315 317 318 319 320 321 322 322 323 323 321 321 320
146 149 158 158 162 161 158 146 156 235 222 291 293 302 303 295 294 296 298 290 290 302 302 299 312 310 318 315 313 313 308 312 318 318 319 321 322 323 324 323 322 322 321
144 155 160 163 166 164 160 151 183 210 229 294 294 304 311 307 310 303 294 290 276 277 289 294 300 305 313 315 315 316 309 316 314 317 319 320 321 323 324 324 324 324 324
152 159 167 171 174 177 171 170 195 197 243 286 299 302 302 304 303 296 294 291 286 283 288 297 298 307 311 311 314 311 310 308 308 314 319 321 323 324 325 325 326 326 326
154 163 163 172 183 185 182 176 193 224 247 271 289 298 300 306 303 298 294 289 288 286 289 299 306 310 309 311 312 313 316 316 310 313 321 322 324 325 326 327 327 326 325
150 155 160 175 190 194 188 192 204 230 257 272 286 289 292 299 299 299 296 292 291 296 292 296 302 306 308 314 317 314 314 311 311 316 319 320 322 325 327 328 328 327 328
150 159 175 186 193 196 198 199 215 254 269 282 285 287 289 284 285 291 293 292 298 301 300 300 303 309 311 314 318 320 320 320 315 317 320 321 321 323 325 328 330 331 332
151 161 168 180 180 188 206 214 241 263 270 287 289 287 286 292 301 307 308 305 306 302 304 305 306 312 316 325 325 319 318 317 310 313 320 317 315 312 317 323 330 334 335
132 136 155 163 170 213 267 296 308 271 278 282 290 294 293 290 303 314 317 316 313 306 305 304 304 310 313 315 316 318 320 322 314 325 322 312 317 314 316 317 330 335 338
115 119 136 142 157 219 268 297 315 316 282 282 285 290 302 307 311 298 307 313 310 310 307 304 301 302 305 311 315 316 317 313 303 312 320 304 313 310 313 319 331 335 341
120 123 110 122 138 272 321 321 316 320 294 295 292 287 293 298 301 313 310 308 303 302 300 298 288 291 297 301 302 304 304 307 299 302 320 302 310 308 309 312 328 338 343
101 107 119 110 121 291 314 325 341 302 299 298 296 300 305 295 307 322 321 312 310 307 309 308 305 304 310 317 324 322 323 323 315 310 320 310 307 311 305 304 325 340 345
106 101 83 72 77 270 318 336 344 321 307 310 304 301 305 311 315 322 317 310 309 311 315 317 315 315 314 315 322 315 308 313 313 307 320 325 312 325 319 307 321 334 338